Arcata, CA

4:44 PM PST on January 22, 2018 (GMT -0800)
Arcata

Weather History for KACV - November, 2012

Change the Weather History Date:

Thursday, November 1, 2012

  Actual Average Record
Temperature  
Mean Temperature 56 °F -  
Max Temperature 62 °F 57 °F 69 °F (2008)
Min Temperature 50 °F 41 °F 30 °F (2002)
Degree Days  
Heating Degree Days 10    
Growing Degree Days 6 (Base 50)    
Moisture  
Dew Point 52 °F    
Average Humidity 88    
Maximum Humidity 100    
Minimum Humidity 64    
Precipitation  
Precipitation 0.04 in - - ()
Sea Level Pressure  
Sea Level Pressure 30.03 in    
Wind  
Wind Speed 5 mph (SSW)    
Max Wind Speed 8 mph    
Max Gust Speed -    
Visibility 10 miles    
Events Rain    
Averages and records for this station are not official NWS values.
T = Trace of Precipitation, MM = Missing Value Source: NWS Daily Summary

Daily Weather History Graph

Daily Weather History Graph

Search for Another Location

Airport or City:

Trip Planner

Search our weather history database for the weather conditions in past years. The results will help you decide how hot, cold, wet, or windy it might be!

Date:

Astronomy

Nov. 01, 2012 Rise Set
Actual Time 7:47 AM PDT 6:11 PM PDT
Civil Twilight 7:19 AM PDT 6:40 PM PDT
Nautical Twilight 6:46 AM PDT 7:12 PM PDT
Astronomical Twilight 6:14 AM PDT 7:44 PM PDT
Moon 8:12 PM PDT (11/1) 10:26 AM PDT (11/1)
Length of Visible Light 11h 20m
Length of Day
10h 23m
Waning Gibbous, 92% of the Moon is Illuminated
Nov 1
Waning Gibbous
Nov 6
Last Quarter
Nov 13
New
Nov 20
First Quarter
Nov 28
Full

Hourly Weather History & Observations

Time (PDT) Temp. Dew Point Humidity Pressure Visibility Wind Dir Wind Speed Gust Speed Precip Events Conditions
12:53 AM 55.0 °F 54.0 °F 96% 29.96 in 8.0 mi South 4.6 mph - 0.04 in Rain Light Rain
1:00 AM 55.4 °F 53.6 °F 94% 29.94 in 10.0 mi South 5.8 mph - 0.00 in Rain Light Rain
1:53 AM 55.9 °F 55.0 °F 97% 29.97 in 10.0 mi SSW 5.8 mph - 0.00 in   Overcast
2:22 AM 55.4 °F 55.4 °F 100% 29.96 in 7.0 mi SSW 8.1 mph - N/A   Overcast
2:53 AM 54.0 °F 54.0 °F 100% 29.99 in 10.0 mi South 6.9 mph - N/A   Overcast
3:53 AM 54.0 °F 53.1 °F 97% 29.99 in 10.0 mi SSE 5.8 mph - N/A   Mostly Cloudy
4:27 AM 55.4 °F 53.6 °F 94% 29.98 in 10.0 mi South 5.8 mph - N/A   Overcast
4:38 AM 55.4 °F 53.6 °F 94% 29.98 in 10.0 mi South 4.6 mph - N/A   Overcast
4:49 AM 55.4 °F 53.6 °F 94% 29.98 in 10.0 mi South 5.8 mph - N/A   Overcast
4:53 AM 55.0 °F 54.0 °F 96% 30.00 in 10.0 mi SSE 4.6 mph - N/A   Overcast
5:53 AM 54.0 °F 52.0 °F 93% 30.01 in 10.0 mi SE 4.6 mph - N/A   Overcast
6:53 AM 53.1 °F 51.1 °F 93% 30.01 in 10.0 mi SE 4.6 mph - N/A   Mostly Cloudy
7:53 AM 53.1 °F 51.1 °F 93% 30.02 in 10.0 mi ESE 3.5 mph - N/A   Overcast
8:53 AM 53.1 °F 52.0 °F 96% 30.05 in 10.0 mi Calm Calm - N/A   Overcast
9:53 AM 55.0 °F 52.0 °F 89% 30.05 in 10.0 mi SE 3.5 mph - N/A   Partly Cloudy
10:53 AM 59.0 °F 51.1 °F 75% 30.06 in 10.0 mi Calm Calm - N/A   Partly Cloudy
11:11 AM 59.0 °F 51.8 °F 77% 30.05 in 10.0 mi SW 5.8 mph - N/A   Mostly Cloudy
11:32 AM 60.8 °F 51.8 °F 72% 30.06 in 10.0 mi WSW 5.8 mph - N/A   Scattered Clouds
11:43 AM 60.8 °F 51.8 °F 72% 30.06 in 8.0 mi WSW 6.9 mph - N/A   Mostly Cloudy
11:53 AM 60.1 °F 52.0 °F 75% 30.08 in 9.0 mi WSW 6.9 mph - N/A   Scattered Clouds
12:53 PM 61.0 °F 50.0 °F 67% 30.07 in 10.0 mi West 5.8 mph - N/A   Partly Cloudy
1:53 PM 61.0 °F 48.9 °F 64% 30.06 in 10.0 mi West 4.6 mph - N/A   Partly Cloudy
2:53 PM 61.0 °F 48.9 °F 64% 30.04 in 10.0 mi WNW 4.6 mph - N/A   Mostly Cloudy
3:53 PM 59.0 °F 51.1 °F 75% 30.04 in 10.0 mi West 4.6 mph - N/A   Clear
4:53 PM 57.9 °F 52.0 °F 81% 30.05 in 10.0 mi West 3.5 mph - N/A   Mostly Cloudy
5:53 PM 55.0 °F 52.0 °F 89% 30.05 in 10.0 mi Calm Calm - N/A   Clear
6:53 PM 52.0 °F 51.1 °F 97% 30.06 in 10.0 mi Calm Calm - N/A   Clear
7:53 PM 51.1 °F 50.0 °F 96% 30.07 in 8.0 mi Calm Calm - N/A   Clear
8:53 PM 50.0 °F 48.9 °F 96% 30.07 in 9.0 mi Calm Calm - N/A   Mostly Cloudy
9:53 PM 51.1 °F 50.0 °F 96% 30.08 in 10.0 mi Calm Calm - N/A   Overcast
10:53 PM 51.1 °F 50.0 °F 96% 30.08 in 10.0 mi ESE 3.5 mph - N/A   Partly Cloudy
11:53 PM 50.0 °F 48.9 °F 96% 30.07 in 10.0 mi ESE 3.5 mph - N/A   Clear